Home > Weather > Trieste > Past weeks

Flag for Italy Past Weather in Trieste, Italy — Yesterday and Last 2 Weeks

Now
84 °F

Passing clouds.


Feels Like: 89 °F
Forecast: 69 / 89 °F
Wind: 5 mph from West

Location: Trieste

Current Time: Jul 29, 2016 at 12:20:41 PM

Latest Report: Jul 29, 2016 at 11:00 AM


Visibility: 13 mi

Pressure: 29.96 "Hg

Humidity: 64%

Dew Point: 71 °F

Location of TriesteLocation

Past Weather in Trieste — Graph

°F

Trieste Temperature Yesterday

Maximum temperature yesterday: 84 °F (at 10:00 AM)
Minimum temperature yesterday: 73 °F (at 2:00 PM)
Average temperature yesterday: 78 °F

High & Low Weather Summary for the Past Weeks

 TemperatureHumidityPressure
High95 °F (Jul 26, 4:00 PM)100% (Jul 23, 3:00 AM)30.10 "Hg (Jul 23, 3:00 AM)
Low63 °F (Jul 16, 3:00 AM)32% (Jul 16, 2:00 PM)29.78 "Hg (Jul 14, 11:00 AM)
Average78 °F60%29.98 "Hg
* Reported Jul 14 11:00 AM — Jul 29 11:00 AM, Trieste, Weather by CustomWeather, © 2016

Note: Actual official high and low records may vary slightly from our data, if they occured in-between our weather recording intervals... More about our weather records

Advertising

Trieste Weather History for the Previous 24 Hours

Scroll right to see more
 ConditionsComfort  
Time TempWeatherWind HumidityBarometerVisibility
11:00 AM
Fri, Jul 29
84 °FPassing clouds.5 mph64%29.96 "Hg12 mi
10:00 AM83 °FScattered clouds.2 mph53%29.96 "Hg12 mi
9:00 AM81 °FScattered clouds.3 mph58%29.95 "Hg12 mi
8:00 AM78 °FPassing clouds.8 mph60%29.94 "Hg12 mi
7:00 AM74 °FSunny.5 mph67%29.94 "Hg12 mi
6:00 AM73 °FSunny.5 mph68%29.94 "Hg12 mi
5:00 AM73 °FPassing clouds.8 mph70%29.93 "Hg12 mi
4:00 AM73 °FPassing clouds.6 mph72%29.93 "Hg12 mi
3:00 AM73 °FPassing clouds.9 mph70%29.93 "Hg12 mi
2:00 AM73 °FPassing clouds.9 mph74%29.93 "Hg12 mi
11:00 PM
Thu, Jul 28
75 °FPassing clouds.8 mph72%29.93 "Hg12 mi
8:00 PM81 °FPassing clouds.7 mph57%29.91 "Hg12 mi
5:00 PM82 °FPassing clouds.7 mph63%29.91 "Hg12 mi
4:00 PM79 °FPartly sunny.9 mph68%29.93 "Hg6 mi
3:00 PM75 °FThunderstorms. Overcast.9 mph80%29.95 "Hg6 mi
2:00 PM73 °FThunderstorms. Overcast.7 mph86%29.97 "Hg6 mi
1:00 PM79 °FOvercast.3 mph78%29.96 "Hg6 mi
12:00 PM81 °FOvercast.2 mph75%29.94 "Hg12 mi
Weather by CustomWeather, © 2016

See weather overviewHow to use our weather pages